Probability
0 0 0 0 0 0 0 0 0 0 10 23 23 16 23 19 6 6 6 3 3 3 0 0 0 0 0 0 0 3 0 0 0 0 0 0 3 0 0 0 0 0 0 0
0 0 0 0 0 0 0 0 0 3 16 26 19 19 23 16 3 3 6 3 3 0 0 0 0 0 0 0 0 0 0 0 0 0 0 0 0 0 0 0 0 0 0 0
0 0 0 0 0 0 0 3 3 13 23 19 16 16 23 13 3 6 6 3 3 0 0 0 0 0 0 0 0 0 0 0 0 0 0 0 0 0 0 0 0 0 0 0
0 0 0 0 0 0 0 3 6 23 23 19 16 19 29 13 6 6 3 3 3 3 0 0 0 0 0 0 0 0 0 0 0 0 0 0 0 0 0 0 0 0 0 0
0 0 0 0 0 0 3 0 13 16 16 10 10 13 16 10 6 3 6 3 3 3 0 0 0 0 0 0 0 0 0 0 0 0 0 0 0 0 0 0 0 0 0 0
0 0 0 0 0 0 3 3 13 13 10 3 10 10 10 6 3 3 0 3 3 3 0 0 0 0 0 0 0 0 0 0 0 0 0 0 0 0 0 0 0 0 0 0
3 0 0 0 0 0 0 10 13 16 16 13 10 16 13 6 3 3 0 0 0 0 0 0 0 0 0 0 0 0 0 0 0 0 3 0 3 0 0 0 0 0 0 0
0 3 3 0 6 10 35 35 16 13 10 16 16 13 10 10 0 0 0 0 0 0 0 0 0 0 0 0 0 0 0 0 0 0 0 0 3 6 0 3 0 0 0 0
13 10 13 10 23 19 26 10 10 10 13 16 10 6 3 3 0 0 0 0 0 0 0 0 0 0 0 0 0 0 0 0 3 3 3 3 3 0 0 3 0 0 0 0
10 10 6 10 13 10 10 6 6 6 13 16 3 3 3 0 0 0 0 0 0 0 0 0 0 0 0 0 0 0 0 0 0 3 3 3 6 0 0 0 0 0 0 0
10 10 10 6 6 10 3 0 3 6 6 3 0 0 0 0 0 0 0 0 0 0 0 0 0 0 0 0 0 0 0 0 0 0 0 0 0 0 0 0 0 0 0 0
19 23 13 10 0 0 0 0 0 0 0 0 0 0 0 0 0 0 0 0 0 0 0 0 0 0 0 0 0 0 0 0 0 0 0 0 0 0 0 0 0 0 0 0
16 10 3 0 0 0 0 0 0 0 0 0 0 0 0 0 0 0 0 0 0 0 0 0 0 0 0 0 0 0 0 0 0 0 0 0 0 0 0 0 0 0 0 0
6 3 0 0 0 3 0 0 0 0 0 0 0 0 0 0 0 0 0 0 0 0 0 0 0 0 0 0 0 0 0 0 0 0 0 0 0 0 0 0 0 0 0 0
0 3 0 0 0 3 0 0 0 0 0 0 0 0 0 0 0 0 0 0 0 0 0 0 0 0 0 0 0 0 0 0 0 0 0 0 0 0 0 0 0 0 0 0
0 0 0 0 0 3 0 0 0 0 0 0 0 0 0 0 0 0 0 0 0 0 0 0 0 0 0 0 0 0 0 0 0 0 0 0 0 0 0 0 0 0 0 0
0 0 0 0 0 0 0 0 0 0 0 0 0 0 0 0 0 0 0 0 0 0 0 0 0 0 0 0 0 0 0 0 0 0 0 0 0 0 0 0 0 0 0 0
0 0 3 3 0 0 0 0 0 0 3 0 0 0 0 0 0 0 0 0 0 0 0 0 0 0 0 0 0 0 0 0 0 0 0 0 0 0 0 0 0 0 0 0
0 0 0 0 0 0 0 0 0 0 3 0 0 0 0 0 0 0 0 0 0 0 0 0 0 0 0 0 0 0 0 0 0 0 0 0 0 0 0 0 0 0 0 0
0 0 0 0 0 0 0 0 0 0 3 0 0 0 0 0 0 0 0 0 0 0 0 0 0 0 0 0 0 0 0 0 0 0 0 0 0 0 0 0 0 0 0 0
0 0 0 0 0 0 0 0 0 0 3 0 0 0 0 0 0 0 0 0 0 0 0 0 0 0 0 0 0 0 0 0 0 0 0 0 0 0 0 0 0 0 0 0
3 0 0 0 0 0 0 0 0 0 0 3 0 0 0 0 0 0 0 0 0 0 0 0 0 0 0 0 0 0 0 0 0 0 0 0 0 0 0 0 0 0 0 0
0 0 0 0 0 3 3 3 0 0 0 3 0 0 0 0 0 0 0 0 0 0 0 0 0 0 0 0 0 0 0 0 0 0 0 0 0 0 0 0 0 0 0 0
3 3 0 3 0 3 3 3 0 0 3 3 0 0 0 0 0 0 0 0 0 0 0 0 0 0 0 0 0 0 0 0 0 0 0 0 0 0 0 0 0 0 0 0
3 3 3 3 3 0 13 10 0 3 3 3 0 0 0 0 0 0 0 0 0 0 0 0 0 0 0 0 0 0 0 0 0 0 0 0 0 0 0 0 0 0 0 0
3 3 3 13 16 13 6 0 0 3 3 0 0 0 0 0 0 0 0 0 0 0 0 0 0 0 0 0 0 0 0 0 0 0 0 0 0 0 0 0 0 0 0 0
3 3 3 3 3 0 0 3 0 0 3 3 0 0 0 0 0 0 0 0 0 0 0 0 0 0 0 0 0 0 0 0 0 0 0 0 0 0 0 0 0 0 0 0
Height
5799 5802 5804 5806 5807 5808 5809 5808 5808 5807 5804 5802 5799 5796 5794 5792 5790 5787 5783 5781 5778 5775 5772 5768 5765 5763 5760 5757 5754 5752 5749 5747 5744 5742 5740 5738 5736 5735 5734 5732 5731 5730 5729 5727
5796 5798 5800 5802 5804 5805 5805 5805 5804 5802 5800 5798 5795 5793 5789 5786 5783 5780 5777 5774 5770 5767 5764 5761 5758 5755 5753 5750 5748 5745 5743 5740 5738 5736 5734 5732 5730 5729 5728 5726 5725 5723 5722 5721
5794 5796 5797 5799 5800 5801 5801 5801 5800 5798 5796 5792 5791 5788 5784 5781 5778 5774 5770 5767 5764 5760 5757 5754 5751 5749 5746 5744 5741 5739 5737 5734 5732 5730 5728 5726 5725 5724 5722 5720 5719 5718 5717 5716
5792 5794 5795 5798 5797 5797 5797 5797 5796 5794 5791 5789 5786 5782 5779 5776 5773 5769 5765 5761 5757 5754 5751 5748 5745 5743 5740 5738 5736 5733 5731 5729 5727 5725 5723 5721 5720 5718 5717 5716 5715 5714 5713 5712
5790 5791 5793 5793 5794 5794 5794 5792 5791 5789 5787 5784 5780 5777 5774 5771 5767 5763 5759 5755 5752 5748 5745 5742 5740 5737 5735 5733 5730 5728 5726 5724 5722 5721 5719 5717 5716 5714 5713 5712 5711 5710 5709 5709
5788 5789 5790 5791 5791 5791 5791 5788 5787 5784 5782 5778 5775 5772 5769 5765 5761 5758 5754 5751 5747 5744 5741 5738 5735 5733 5730 5728 5726 5724 5722 5720 5719 5717 5715 5714 5712 5711 5710 5709 5708 5707 5706 5706
5787 5787 5787 5788 5788 5789 5789 5787 5783 5781 5778 5775 5772 5768 5765 5761 5757 5754 5750 5746 5743 5740 5737 5734 5732 5729 5727 5725 5723 5721 5719 5717 5716 5714 5713 5711 5710 5709 5708 5707 5706 5705 5704 5704
5786 5786 5788 5785 5786 5786 5785 5783 5780 5778 5775 5772 5768 5764 5761 5757 5754 5750 5747 5743 5740 5737 5734 5731 5729 5727 5724 5722 5720 5718 5717 5715 5714 5712 5711 5710 5708 5707 5706 5705 5705 5704 5703 5703
5785 5787 5785 5784 5784 5783 5781 5780 5777 5775 5771 5768 5765 5761 5757 5754 5751 5748 5744 5741 5738 5735 5733 5730 5727 5725 5723 5721 5719 5717 5715 5714 5713 5711 5710 5709 5707 5706 5705 5705 5704 5703 5703 5702
5783 5782 5782 5782 5781 5780 5779 5777 5774 5771 5768 5765 5761 5758 5755 5751 5748 5745 5742 5739 5737 5734 5732 5730 5727 5725 5723 5721 5719 5717 5715 5714 5712 5711 5710 5708 5707 5707 5706 5705 5704 5704 5703 5702
5782 5781 5781 5780 5779 5778 5776 5774 5771 5768 5765 5762 5759 5756 5752 5749 5747 5744 5741 5738 5736 5734 5731 5729 5727 5725 5723 5722 5720 5718 5716 5714 5713 5712 5711 5709 5708 5708 5707 5706 5706 5705 5704 5704
5780 5779 5779 5778 5777 5775 5774 5771 5769 5766 5763 5760 5757 5754 5751 5748 5746 5743 5740 5738 5736 5734 5732 5730 5728 5726 5724 5723 5721 5719 5717 5716 5714 5713 5712 5711 5710 5710 5709 5708 5707 5707 5706 5706
5778 5777 5777 5776 5775 5773 5771 5769 5767 5764 5761 5758 5755 5753 5750 5748 5745 5743 5740 5738 5736 5734 5733 5731 5729 5727 5726 5724 5723 5721 5720 5718 5717 5716 5715 5714 5713 5712 5712 5711 5710 5710 5709 5709
5776 5775 5774 5774 5773 5771 5769 5767 5765 5762 5760 5757 5755 5752 5750 5748 5745 5743 5741 5739 5737 5736 5734 5733 5731 5730 5728 5727 5725 5724 5723 5721 5720 5719 5718 5717 5716 5716 5715 5715 5714 5713 5713 5712
5773 5773 5772 5771 5770 5769 5767 5766 5763 5761 5759 5756 5754 5752 5750 5748 5746 5745 5743 5741 5739 5738 5737 5735 5734 5733 5731 5730 5729 5728 5726 5725 5724 5722 5721 5721 5720 5720 5719 5719 5718 5718 5717 5717
5771 5771 5770 5769 5769 5767 5766 5764 5763 5760 5758 5756 5754 5753 5751 5749 5748 5746 5744 5743 5742 5740 5739 5738 5737 5736 5735 5734 5732 5731 5730 5729 5728 5727 5726 5725 5724 5724 5723 5723 5723 5722 5722 5721
5769 5769 5768 5768 5767 5766 5765 5763 5762 5760 5758 5757 5755 5754 5752 5751 5749 5748 5747 5745 5744 5743 5742 5741 5740 5739 5738 5737 5736 5735 5734 5733 5732 5731 5730 5729 5729 5728 5728 5728 5727 5727 5726 5726
5767 5767 5767 5766 5766 5765 5764 5762 5761 5760 5759 5757 5756 5755 5754 5752 5751 5750 5749 5748 5747 5746 5745 5744 5743 5742 5741 5741 5740 5739 5738 5737 5736 5735 5734 5734 5733 5733 5732 5732 5731 5731 5731 5730
5766 5765 5765 5765 5764 5763 5763 5762 5760 5759 5759 5758 5757 5756 5755 5754 5753 5752 5751 5750 5749 5748 5748 5747 5746 5745 5744 5744 5743 5742 5742 5741 5740 5739 5739 5738 5738 5737 5737 5736 5736 5736 5735 5735
5764 5764 5763 5763 5763 5762 5761 5761 5760 5759 5759 5758 5758 5757 5756 5755 5755 5754 5753 5752 5751 5750 5750 5749 5748 5748 5747 5747 5746 5746 5745 5745 5744 5743 5743 5742 5742 5741 5741 5740 5740 5740 5739 5739
5762 5762 5762 5761 5761 5761 5760 5760 5759 5759 5759 5758 5758 5758 5757 5757 5756 5755 5754 5754 5753 5753 5752 5751 5751 5751 5750 5749 5749 5749 5748 5748 5747 5747 5747 5746 5746 5745 5745 5744 5744 5743 5743 5742
5759 5759 5760 5759 5759 5759 5759 5758 5758 5758 5758 5758 5758 5758 5758 5757 5757 5756 5756 5756 5755 5754 5754 5753 5753 5753 5753 5752 5752 5751 5751 5751 5750 5750 5750 5750 5749 5749 5749 5748 5747 5747 5746 5745
5757 5757 5757 5757 5757 5757 5757 5757 5757 5757 5757 5758 5758 5758 5758 5758 5758 5757 5757 5757 5756 5756 5755 5755 5755 5755 5754 5754 5754 5754 5753 5753 5753 5753 5752 5752 5752 5752 5751 5751 5750 5749 5748 5748
5754 5754 5755 5755 5755 5755 5755 5755 5755 5756 5756 5757 5757 5757 5758 5758 5758 5758 5758 5757 5757 5757 5757 5757 5756 5756 5756 5756 5756 5755 5755 5755 5755 5755 5754 5754 5754 5754 5753 5753 5752 5751 5750 5749
5751 5751 5752 5752 5753 5753 5753 5754 5754 5754 5755 5756 5756 5757 5757 5757 5757 5757 5758 5757 5757 5757 5757 5757 5757 5757 5757 5756 5756 5757 5756 5756 5756 5756 5756 5755 5755 5755 5755 5754 5753 5753 5752 5750
5747 5747 5748 5749 5750 5750 5751 5751 5752 5752 5753 5754 5755 5755 5755 5756 5756 5756 5757 5757 5757 5757 5757 5757 5757 5757 5757 5757 5757 5757 5757 5757 5757 5756 5756 5756 5756 5755 5755 5754 5754 5753 5752 5750
5742 5743 5744 5745 5746 5747 5748 5748 5749 5749 5750 5751 5752 5753 5753 5754 5754 5755 5755 5755 5756 5756 5756 5756 5756 5756 5756 5756 5756 5756 5756 5756 5756 5756 5756 5756 5755 5755 5754 5754 5753 5752 5751 5750
Wind_Speed
13 12 13 12 12 13 15 15 15 18 22 24 25 25 25 26 27 28 28 29 30 30 29 29 29 29 29 28 27 27 26 27 26 26 26 26 26 26 26 26 25 25 24 24
13 12 12 12 12 14 14 15 17 20 23 24 24 26 27 27 27 27 28 29 29 29 29 28 28 28 28 27 26 26 26 26 25 25 25 25 25 24 24 23 22 22 22 22
10 10 11 12 13 12 13 16 17 20 22 23 25 27 26 26 27 28 28 27 27 27 27 26 27 26 26 25 25 25 25 25 24 24 24 23 21 21 21 20 20 19 19 19
8 9 11 11 12 13 14 15 17 19 21 23 25 25 25 26 27 27 26 25 25 25 25 26 25 25 25 24 23 23 22 22 22 21 20 20 19 19 19 18 17 17 16 16
7 8 10 10 12 15 16 17 17 19 21 23 24 25 25 25 25 25 24 24 23 24 23 23 23 23 22 21 21 21 20 19 19 18 17 17 16 15 15 15 14 13 13 13
8 9 10 12 12 14 15 16 17 19 22 23 23 24 24 24 23 23 22 22 22 22 21 20 19 19 18 18 17 17 16 16 15 14 14 14 13 12 12 13 12 11 11 11
8 9 10 11 12 13 15 17 17 18 20 22 23 23 23 22 21 22 22 21 20 19 18 17 17 17 16 16 15 15 14 14 13 13 13 12 11 11 10 9 9 9 9 9
9 11 11 11 12 13 15 17 17 18 19 21 21 21 21 20 20 20 20 19 17 16 15 14 14 14 13 13 13 12 12 11 11 11 11 10 9 8 7 7 7 7 7 7
10 10 12 13 13 13 15 16 17 18 19 20 20 20 19 19 19 19 18 17 15 13 13 12 11 11 11 11 10 10 10 9 9 8 8 7 7 6 5 5 5 5 5 5
10 10 11 13 13 14 15 16 17 18 18 19 18 18 18 18 17 16 15 14 12 12 11 11 10 10 10 9 9 9 8 7 7 6 6 6 5 5 5 4 4 5 5 5
10 10 12 11 12 14 15 15 16 17 17 17 17 16 16 16 15 13 13 12 11 11 11 10 10 9 9 9 9 8 8 7 7 6 6 6 5 5 5 5 5 5 6 6
10 11 11 12 12 13 14 15 15 16 16 15 15 14 13 13 13 12 12 11 10 10 9 9 9 9 8 9 9 9 9 8 8 7 7 7 7 7 7 6 7 7 7 7
11 11 12 12 12 13 14 14 14 15 15 13 13 12 12 12 11 11 11 10 9 9 8 8 8 9 9 10 10 10 10 10 10 9 9 9 9 9 9 9 9 10 10 10
10 11 12 12 12 12 12 12 13 13 13 13 13 12 12 11 10 10 10 9 9 8 8 9 9 10 10 11 11 11 11 11 11 11 10 10 11 11 11 11 12 13 13 13
10 10 11 11 11 11 11 11 11 12 12 12 11 11 10 9 10 10 10 9 9 9 9 9 10 10 11 11 11 12 12 12 12 12 12 12 13 13 13 13 14 14 15 15
10 10 9 9 9 9 10 10 10 10 10 10 10 9 9 9 9 9 9 9 9 8 9 9 9 10 10 11 11 11 12 13 13 13 13 14 14 14 14 14 14 15 15 15
10 9 9 9 9 9 9 9 9 9 9 8 8 7 7 8 8 8 8 8 8 9 9 9 9 9 10 10 11 12 12 13 13 13 14 14 14 14 14 14 15 15 15 15
9 8 8 9 9 8 8 8 8 7 7 6 6 6 7 7 7 7 7 7 7 8 8 8 8 9 9 9 10 11 12 13 13 13 14 14 14 14 14 14 15 15 14 15
8 8 8 8 8 7 7 7 6 5 5 4 5 5 5 6 6 6 6 6 6 6 7 7 8 8 9 9 9 10 11 12 12 13 14 14 14 14 14 14 14 13 14 14
9 8 8 8 8 8 7 6 5 5 4 3 3 4 4 5 5 5 6 6 6 6 6 7 7 8 8 8 9 9 10 11 11 12 12 13 13 13 13 13 12 12 13 13
9 9 9 9 8 7 6 6 5 4 4 3 3 3 3 4 4 4 5 5 5 5 5 6 6 7 7 7 8 8 9 9 10 11 11 11 11 12 12 12 12 12 12 12
10 9 9 8 8 8 7 6 5 4 4 3 3 2 2 3 3 3 3 4 3 3 3 4 5 5 6 6 6 7 7 8 8 9 9 9 10 10 10 10 11 11 11 11
10 9 9 8 8 8 7 6 6 5 5 4 3 3 2 2 2 3 3 3 3 3 2 3 3 4 4 4 4 5 6 6 6 7 7 8 8 8 8 9 9 9 9 9
11 11 10 10 9 8 8 7 7 6 6 5 4 4 4 3 3 2 2 2 2 1 1 2 2 2 2 3 3 3 4 4 4 5 5 5 6 6 6 7 7 7 8 8
13 13 12 11 10 9 9 8 8 7 7 7 6 6 5 5 4 4 3 2 2 1 1 1 0 0 1 1 1 1 2 2 2 2 3 3 3 4 4 4 5 6 6 7
15 14 14 13 12 11 10 10 9 9 9 9 9 8 8 7 6 5 5 5 4 4 3 3 2 2 2 1 1 1 1 0 0 1 1 2 2 3 3 4 5 5 7 8
16 16 15 15 14 14 13 12 11 11 11 10 11 10 10 9 8 8 7 7 6 6 5 5 4 4 4 4 3 3 3 3 3 3 3 3 4 4 4 5 6 7 8 9
Wind_Direction
232 234 231 234 239 247 252 260 269 273 278 286 292 295 297 297 296 297 299 299 298 298 297 297 297 297 297 296 296 296 296 296 296 294 292 292 292 293 293 292 289 288 288 287
225 231 228 233 239 246 252 263 269 276 283 286 291 295 298 302 302 302 301 300 299 299 298 297 297 296 296 295 296 296 296 297 298 295 293 294 293 294 295 295 292 289 290 289
230 237 242 239 240 246 261 264 269 277 285 289 295 299 302 304 306 307 305 302 300 298 298 298 297 297 297 296 297 297 297 297 296 296 296 296 294 295 295 296 295 294 293 291
236 239 251 252 248 257 263 267 273 279 284 291 297 302 304 306 305 307 308 307 305 301 299 298 297 297 298 298 299 299 300 300 298 297 297 299 299 297 295 297 297 297 296 293
234 248 247 261 261 268 272 276 278 284 290 295 300 303 307 308 309 310 310 309 308 307 305 302 301 301 301 299 300 301 302 302 303 302 302 303 303 303 301 299 300 299 298 299
239 251 252 262 269 278 283 290 293 296 299 304 308 308 310 311 312 312 312 311 310 308 306 305 305 306 306 306 305 304 304 304 306 306 308 309 307 304 303 303 303 301 299 299
257 261 265 274 272 281 286 292 299 302 306 309 310 311 313 312 313 315 316 315 313 312 311 312 313 313 312 309 308 308 309 309 309 308 311 312 310 309 309 310 311 309 307 303
257 262 270 279 287 289 292 298 303 307 310 312 312 312 314 313 314 317 320 321 321 321 321 321 321 321 319 319 317 314 314 315 315 313 312 312 314 319 320 321 322 321 322 320
272 275 280 287 291 297 299 303 306 308 310 314 315 315 315 316 318 319 323 326 329 332 335 333 330 330 333 333 333 330 324 321 324 327 324 327 329 333 334 336 338 343 347 350
274 280 285 290 295 300 304 307 309 312 316 317 319 319 320 321 323 327 331 336 341 343 343 342 344 344 345 345 343 340 338 339 342 345 350 359 3 6 7 5 7 11 14 19
273 285 291 293 301 307 310 314 315 315 317 320 324 325 325 326 330 333 337 340 344 346 348 352 354 355 353 354 354 1 4 10 15 20 25 30 33 36 37 39 40 40 43 47
273 283 293 303 307 311 316 322 323 322 322 325 328 331 333 337 342 346 351 353 353 354 358 2 5 8 11 15 20 23 29 35 38 40 46 48 48 50 54 56 57 59 59 58
283 289 293 300 305 311 317 324 326 328 330 333 339 343 344 344 346 351 358 2 7 10 12 16 21 27 30 32 38 46 49 49 49 52 54 55 56 61 66 69 67 65 68 72
290 291 294 300 305 310 318 325 328 331 334 337 340 345 350 355 360 6 11 14 19 25 31 35 39 42 45 51 54 56 55 53 53 55 60 63 66 70 72 72 73 75 76 75
293 293 295 299 304 309 318 326 329 333 338 344 347 351 359 6 11 14 18 24 30 37 41 45 48 52 54 57 58 59 59 59 60 64 68 72 73 74 75 76 77 77 77 76
293 295 298 302 305 309 319 326 331 339 345 350 355 3 10 15 18 21 27 34 39 44 48 51 55 57 57 59 61 62 63 65 67 69 72 74 76 77 78 78 77 76 75 75
290 293 295 301 308 313 319 323 331 339 346 355 4 10 14 18 21 26 32 39 44 49 53 57 58 57 59 61 63 66 67 68 69 71 73 75 76 77 78 78 77 76 74 74
286 287 291 300 308 314 320 326 332 339 349 3 11 15 17 20 26 31 36 40 45 49 53 56 58 59 62 65 66 67 68 69 71 73 74 75 75 76 77 78 76 74 75 76
282 284 291 298 301 307 313 321 332 339 346 360 8 11 14 23 27 31 34 38 43 47 51 55 61 66 70 72 71 70 71 71 72 75 76 76 75 76 76 75 74 73 74 72
279 282 288 293 298 303 309 316 323 326 329 335 350 0 10 18 23 28 34 40 44 50 58 64 66 67 71 74 73 73 75 75 75 77 76 74 74 75 74 74 73 71 68 64
279 281 284 287 291 297 303 308 310 310 310 314 324 341 2 14 21 28 34 39 44 51 59 66 69 70 71 75 76 77 79 80 79 77 74 74 74 74 74 74 72 68 63 60
276 276 278 280 284 287 290 292 293 290 288 295 296 309 337 356 8 18 29 33 36 44 58 65 67 67 69 73 78 82 83 83 82 79 75 75 75 75 73 70 66 62 59 56
272 271 269 272 277 280 280 279 276 271 271 275 273 275 290 314 338 353 5 17 33 51 69 74 67 66 73 75 77 84 87 84 79 76 77 77 75 72 68 64 59 55 54 52
268 266 265 267 271 273 271 268 264 259 258 260 262 262 266 276 290 307 330 353 17 44 66 73 67 69 79 84 84 83 86 83 76 73 74 73 68 62 57 54 51 47 44 40
266 263 262 262 263 266 264 260 257 255 253 253 255 257 260 262 268 273 279 289 296 296 298 296 314 95 103 106 106 91 80 73 68 67 62 54 47 41 38 36 32 26 22 19
264 260 257 257 259 259 259 259 258 256 253 251 252 254 256 257 260 263 265 268 268 267 266 265 260 253 247 242 232 238 272 294 18 17 6 0 357 355 355 355 354 355 355 355
259 256 254 254 254 255 256 257 258 256 254 251 250 251 253 254 256 259 261 260 257 257 257 256 253 253 253 253 253 255 260 271 273 275 285 298 306 312 317 322 327 331 333 335